Home   Weather   Dallas   Past weeks
Flag for USA

Past Weather in Dallas, Texas, USA — Yesterday and Last 2 Weeks

Now
63 °F

Passing clouds.


Feels Like: 63 °F
Forecast: 65 / 60 °F
Wind: 7 mph from East

Location: Dallas Love Field

Current Time: Mar 30, 2020 at 3:12:52 am

Latest Report: Mar 30, 2020 at 1:53 am


Visibility: 10 mi

Pressure: 30.08 "Hg

Humidity: 60%

Dew Point: 49 °F

Location of DallasLocation

Past Weather in Dallas — Graph

°F

Dallas Temperature Yesterday

Maximum temperature yesterday: 70 °F (at 3:53 pm)
Minimum temperature yesterday: 53 °F (at 1:53 am)
Average temperature yesterday: 62 °F

High & Low Weather Summary for the Past Weeks

 TemperatureHumidityPressure
High88 °F (Mar 25, 2:53 pm)100% (Mar 22, 4:53 am)30.45 "Hg (Mar 22, 4:53 am)
Low42 °F (Mar 21, 4:53 am)16% (Mar 28, 3:53 pm)29.64 "Hg (Mar 27, 4:53 pm)
Average65 °F74%30.01 "Hg
* Reported Mar 15 1:53 am — Mar 30 1:53 am, Dallas. Weather by CustomWeather, © 2020

Note: Actual official high and low records may vary slightly from our data, if they occured in-between our weather recording intervals... More about our weather records

Dallas Weather History for the Previous 24 Hours

Scroll right to see more
 ConditionsComfort  
Time TempWeatherWind HumidityBarometerVisibility
1:53 am
Mon, Mar 30
63 °FPassing clouds.7 mph60%30.08 "Hg10 mi
1:27 am64 °FThunderstorms. Mostly cloudy.5 mph61%30.11 "Hg10 mi
12:53 am64 °FLight rain. Mostly cloudy.7 mph63%30.09 "Hg10 mi
11:53 pm
Sun, Mar 29
65 °FMostly cloudy.5 mph56%30.10 "Hg10 mi
10:53 pm66 °FMostly cloudy.6 mph52%30.12 "Hg10 mi
9:53 pm66 °FMostly cloudy.3 mph54%30.13 "Hg10 mi
8:53 pm66 °FOvercast.5 mph52%30.11 "Hg10 mi
7:53 pm67 °FOvercast.6 mph51%30.11 "Hg10 mi
6:53 pm70 °FMostly cloudy.5 mph41%30.11 "Hg10 mi
5:53 pm70 °FCloudy.6 mph39%30.10 "Hg10 mi
4:53 pm70 °FCloudy.5 mph37%30.12 "Hg10 mi
3:53 pm70 °FMore clouds than sun.7 mph37%30.14 "Hg10 mi
2:53 pm69 °FMore clouds than sun.3 mph35%30.15 "Hg10 mi
1:53 pm68 °FPartly sunny.6 mph35%30.17 "Hg10 mi
12:53 pm65 °FPartly sunny.6 mph37%30.19 "Hg10 mi
11:53 am64 °FPartly sunny.3 mph41%30.21 "Hg10 mi
10:53 am62 °FPartly sunny.7 mph43%30.21 "Hg10 mi
9:53 am59 °FPartly sunny.5 mph51%30.17 "Hg10 mi
8:53 am56 °FBroken clouds.3 mph58%30.16 "Hg10 mi
7:53 am54 °FPartly sunny.3 mph59%30.14 "Hg10 mi
6:53 am54 °FPassing clouds.No wind57%30.09 "Hg10 mi
5:53 am54 °FPassing clouds.6 mph57%30.05 "Hg10 mi
4:53 am55 °FClear.3 mph53%30.03 "Hg10 mi
3:53 am55 °FClear.5 mph55%30.02 "Hg10 mi
Weather by CustomWeather, © 2020

See weather overview

Advertising